Location: Cypress Hills Dark-Sky Preserve - CHICO
(49.6176°N, 110.2634°W)
Time: 01:53:03
(UTC-07:00)

Amateur Radio Satellites - All Passes

Search period start: 27 February 2017 01:23
Search period end: 28 February 2017 01:23
Location: Cypress Hills Dark-Sky Preserve - CHICO, 49.6176°N, 110.2634°W

Satellite Date Start Highest point End Downlink Frequencies (MHz)
Time Altitude Azimuth
UKube-1 27 Feb 01:29:55 01:33:10 21° 267° (W) 01:36:26 .
PCSat 27 Feb 01:33:51 01:38:58 43° 244° (WSW) 01:44:03 145.827
Gurwin Techsat 1B 27 Feb 01:44:35 01:49:25 34° 95° (E) 01:54:12 435.225
DUCHIFAT 1 27 Feb 01:57:28 02:00:00 16° 302° (WNW) 02:02:32 145.980
FO-29 27 Feb 02:03:21 02:07:23 15° 318° (NW) 02:11:18 435.910
EO-79 27 Feb 02:11:46 02:12:48 11° 306° (NW) 02:13:49 145.935-145.965
ITUPSAT 1 27 Feb 02:14:12 02:19:02 87° 252° (WSW) 02:23:53 437.325
BEESAT 27 Feb 02:19:35 02:24:22 78° 256° (WSW) 02:29:12 436.000
MOZHAYETS 4 27 Feb 02:24:05 02:28:32 46° 69° (ENE) 02:33:00
Oscar 19 27 Feb 02:24:07 02:29:15 72° 288° (WNW) 02:34:21 437.125/150
RS-15 27 Feb 02:33:14 02:45:27 70° 240° (WSW) 02:57:11 29.354- 29.394
KKS-1 27 Feb 02:42:23 02:45:49 23° 61° (ENE) 02:49:16 437.445
BUGSAT 1 27 Feb 02:47:16 02:49:18 13° 303° (WNW) 02:51:21 437.445
SO-50 27 Feb 02:49:31 02:51:30 12° 4° (N) 02:53:28 436.795
ITAMSAT 1 27 Feb 03:02:06 03:06:46 32° 95° (E) 03:11:24 435.822/435.867
M-CUBED/EXP-1 PRIME 27 Feb 03:02:50 03:03:32 11° 52° (NE) 03:04:14 437.505
STARS 27 Feb 03:11:15 03:14:30 21° 60° (ENE) 03:17:47 437.465
Gurwin Techsat 1B 27 Feb 03:24:28 03:29:28 41° 294° (WNW) 03:34:26 435.225
AO-85 27 Feb 03:26:53 03:30:05 19° 115° (ESE) 03:33:09 145.980
CUBESAT XI-V 27 Feb 03:28:48 03:33:04 37° 67° (ENE) 03:37:19 437.345
AO-7 27 Feb 03:31:25 03:39:17 43° 99° (E) 03:47:03 .
ITUPSAT 1 27 Feb 03:55:31 03:57:35 13° 273° (W) 03:59:40 437.325
BEESAT 27 Feb 04:01:46 04:02:58 11° 275° (W) 04:04:10 436.000
MOZHAYETS 4 27 Feb 04:02:08 04:05:55 24° 268° (W) 04:09:42
Oscar 19 27 Feb 04:05:14 04:07:42 14° 308° (NW) 04:10:11 437.125/150
KKS-1 27 Feb 04:17:48 04:22:05 49° 260° (W) 04:26:26 437.445
SO-50 27 Feb 04:30:03 04:33:36 22° 28° (NNE) 04:37:08 436.795
M-CUBED/EXP-1 PRIME 27 Feb 04:34:15 04:37:31 76° 249° (WSW) 04:40:49 437.505
ITAMSAT 1 27 Feb 04:41:25 04:46:22 43° 294° (WNW) 04:51:17 435.822/435.867
STRAND 1 27 Feb 04:44:39 04:46:09 11° 49° (NE) 04:47:39 437.568
STARS 27 Feb 04:46:14 04:50:31 54° 259° (W) 04:54:51 437.465
RS-15 27 Feb 04:47:39 04:55:30 20° 264° (W) 05:03:11 29.354- 29.394
BEESAT 3 27 Feb 05:05:13 05:06:36 12° 110° (ESE) 05:07:59 437.485
AO-85 27 Feb 05:05:46 05:10:09 64° 312° (NW) 05:14:17 145.980
CUBESAT XI-V 27 Feb 05:06:24 05:10:30 30° 265° (W) 05:14:36 437.345
XW-2C 27 Feb 05:22:07 05:23:05 11° 87° (E) 05:24:03 145.795 - 145.815
AO-7 27 Feb 05:24:14 05:32:16 55° 300° (WNW) 05:40:15 .
DOVE 4 27 Feb 05:29:21 05:32:48 20° 91° (E) 05:36:22 437.250
LilacSat-2 27 Feb 05:39:44 05:42:23 18° 91° (E) 05:45:01 437.200
BEESAT 2 27 Feb 05:47:17 05:49:17 14° 111° (ESE) 05:51:19 435.950
CUTE-I 27 Feb 06:03:49 06:08:35 31° 95° (E) 06:13:20 437.470
SO-50 27 Feb 06:10:11 06:14:43 86° 49° (NE) 06:19:12 436.795
STRAND 1 27 Feb 06:19:15 06:24:17 57° 69° (ENE) 06:29:21 437.568
KAITUO 1B 27 Feb 06:26:02 06:29:40 42° 98° (E) 06:33:14 145.475/437.950
XW-2F 27 Feb 06:34:11 06:37:59 62° 101° (ESE) 06:41:44 145.980 - 146.000
BEESAT 3 27 Feb 06:39:37 06:43:33 89° 130° (SE) 06:47:33 437.485
XW-2D 27 Feb 06:40:06 06:43:57 77° 103° (ESE) 06:47:45 145.860 - 145.880
XW-2B 27 Feb 06:45:13 06:49:04 85° 101° (E) 06:52:52 145.730 - 145.750
AO-85 27 Feb 06:48:32 06:51:17 17° 334° (NNW) 06:53:58 145.980
O/OREOS (USA 219) 27 Feb 06:50:07 06:53:55 25° 49° (NE) 06:57:43 437.305
CUTE 1.7 + AOD 2 27 Feb 06:50:19 06:52:29 14° 88° (E) 06:54:39 437.475
XW-2C 27 Feb 06:53:58 06:57:49 76° 286° (WNW) 07:01:37 145.795 - 145.815
NUDT-PHONESAT 27 Feb 06:58:20 07:02:08 82° 285° (WNW) 07:05:52 437.300
DOVE 4 27 Feb 07:06:12 07:10:50 61° 288° (WNW) 07:15:43 437.250
FO-29 27 Feb 07:09:48 07:11:25 11° 35° (NE) 07:13:02 435.910
LilacSat-2 27 Feb 07:13:13 07:16:55 45° 289° (WNW) 07:20:35 437.200
AO-7 27 Feb 07:18:11 07:23:19 18° 324° (NW) 07:28:27 .
BEESAT 2 27 Feb 07:22:31 07:26:29 81° 310° (NW) 07:30:32 435.950
ISS 27 Feb 07:23:12 07:25:33 18° 140° (SE) 07:27:55 437.550
AAUSAT CUBESAT 2 27 Feb 07:27:20 07:28:33 11° 86° (E) 07:29:44 437.432
CUBEBUG 2 27 Feb 07:29:35 07:32:59 19° 89° (E) 07:36:21 437.445
XW-2A 27 Feb 07:37:58 07:41:24 56° 101° (E) 07:44:49 145.665 - 145.685
HO-68 27 Feb 07:40:25 07:47:17 47° 99° (E) 07:54:07 435.675
SEEDS 27 Feb 07:42:26 07:46:09 30° 95° (E) 07:49:49 437.485
Tancredo 1 27 Feb 07:43:03 07:45:49 26° 144° (SE) 07:48:34 437.200
CUTE-I 27 Feb 07:43:40 07:48:47 45° 294° (WNW) 07:53:53 437.470
TIGRISAT 27 Feb 07:48:46 07:50:21 12° 53° (NE) 07:51:57 435.000
UNISAT 6 27 Feb 07:48:47 07:50:41 12° 54° (NE) 07:52:35 437.425
SO-50 27 Feb 07:51:59 07:54:33 15° 249° (WSW) 07:57:06 436.795
STRAND 1 27 Feb 07:59:45 08:03:49 23° 268° (W) 08:07:56 437.568
KAITUO 1B 27 Feb 08:00:42 08:03:26 19° 297° (WNW) 08:06:08 145.475/437.950
UWE-3 27 Feb 08:02:12 08:06:02 24° 92° (E) 08:09:47 435.000/436.395/437.385
XW-2F 27 Feb 08:09:33 08:11:41 15° 300° (WNW) 08:13:48 145.980 - 146.000
XW-2D 27 Feb 08:15:58 08:17:36 12° 301° (WNW) 08:19:13 145.860 - 145.880
ZACube-1 27 Feb 08:18:34 08:22:05 21° 91° (E) 08:25:32 437.345
BEESAT 3 27 Feb 08:18:46 08:21:42 19° 330° (NNW) 08:24:40 437.485
XW-2B 27 Feb 08:21:22 08:22:40 11° 302° (WNW) 08:23:57 145.730 - 145.750
CUTE 1.7 + AOD 2 27 Feb 08:24:36 08:28:50 70° 286° (WNW) 08:33:00 437.475
O/OREOS (USA 219) 27 Feb 08:29:10 08:33:38 53° 249° (WSW) 08:38:06 437.305
PRISM 27 Feb 08:32:17 08:36:16 55° 71° (ENE) 08:40:16 437.425
DOVE 4 27 Feb 08:46:48 08:47:42 10° 306° (NW) 08:48:37 437.250
FO-29 27 Feb 08:47:36 08:54:10 35° 57° (ENE) 09:01:02 435.910
ISS 27 Feb 08:58:20 09:01:38 76° 159° (SSE) 09:04:56 437.550
AAUSAT CUBESAT 2 27 Feb 09:00:28 09:04:36 83° 284° (WNW) 09:08:42 437.432
BEESAT 2 27 Feb 09:02:02 09:04:54 18° 331° (NNW) 09:07:47 435.950
YUBILEINY 27 Feb 09:04:06 09:10:58 27° 78° (ENE) 09:17:49 435.215
AO-73 27 Feb 09:05:08 09:09:37 53° 99° (E) 09:14:00 145.935
CUBEBUG 2 27 Feb 09:05:16 09:10:00 62° 288° (WNW) 09:14:40 437.445
Oscar 11 27 Feb 09:09:10 09:13:23 49° 99° (E) 09:17:34 .
XW-2A 27 Feb 09:12:02 09:13:46 13° 299° (WNW) 09:15:29 145.665 - 145.685
SEEDS 27 Feb 09:18:08 09:21:50 31° 294° (WNW) 09:25:29 437.485
Tancredo 1 27 Feb 09:18:34 09:21:50 85° 343° (NNW) 09:25:06 437.200
TIGRISAT 27 Feb 09:21:38 09:26:10 69° 73° (ENE) 09:30:49 435.000
UNISAT 6 27 Feb 09:22:01 09:26:34 75° 73° (ENE) 09:31:14 437.425
HO-68 27 Feb 09:28:19 09:35:01 44° 299° (WNW) 09:41:40 435.675
UWE-3 27 Feb 09:38:12 09:42:42 46° 291° (WNW) 09:47:07 435.000/436.395/437.385
DUCHIFAT 1 27 Feb 09:43:21 09:45:19 13° 56° (ENE) 09:47:18 145.980
ZACube-1 27 Feb 09:54:12 09:58:39 50° 290° (WNW) 10:03:00 437.345
EO-79 27 Feb 09:55:32 09:58:33 19° 61° (ENE) 10:01:36 145.935-145.965
CUTE 1.7 + AOD 2 27 Feb 10:03:28 10:03:52 10° 305° (NW) 10:04:15 437.475
PRISM 27 Feb 10:09:18 10:11:54 16° 269° (W) 10:14:31 437.425
NANOSAT C BR1 27 Feb 10:10:36 10:14:01 24° 63° (ENE) 10:17:27 145.865
POLYITAN 1 27 Feb 10:13:04 10:16:40 27° 64° (ENE) 10:20:18 437.675
AO-85 27 Feb 10:13:08 10:15:29 15° 24° (NNE) 10:17:50 145.980
DELFI C3 27 Feb 10:13:23 10:17:20 79° 103° (ESE) 10:21:15 145.870
QB50P2 27 Feb 10:15:59 10:19:42 30° 66° (ENE) 10:23:28 145.880/145.840
LO-87 27 Feb 10:17:20 10:18:45 12° 89° (E) 10:20:11 145.935 - 145.965
AIST 2D 27 Feb 10:21:56 10:25:19 43° 71° (ENE) 10:28:45 435.315
BUGSAT 1 27 Feb 10:30:54 10:33:06 14° 58° (ENE) 10:35:20 437.445
FO-29 27 Feb 10:31:18 10:38:38 69° 259° (WSW) 10:46:31 435.910
ISS 27 Feb 10:34:56 10:38:13 58° 359° (N) 10:41:29 437.550
AAUSAT CUBESAT 2 27 Feb 10:38:05 10:39:23 11° 304° (WNW) 10:40:40 437.432
AO-73 27 Feb 10:42:01 10:45:31 22° 298° (WNW) 10:48:57 145.935
CUBEBUG 2 27 Feb 10:44:26 10:45:41 11° 307° (NW) 10:46:56 437.445
Oscar 11 27 Feb 10:45:56 10:49:13 21° 298° (WNW) 10:52:30 .
Tancredo 1 27 Feb 10:55:03 10:58:16 58° 3° (N) 11:01:29 437.200
YUBILEINY 27 Feb 10:57:58 11:06:49 81° 281° (W) 11:15:40 435.215
TIGRISAT 27 Feb 11:00:31 11:03:22 16° 272° (W) 11:06:16 435.000
UNISAT 6 27 Feb 11:01:12 11:03:50 15° 273° (W) 11:06:31 437.425
DUCHIFAT 1 27 Feb 11:16:08 11:20:21 88° 250° (WSW) 11:24:38 145.980
HO-68 27 Feb 11:18:09 11:21:00 13° 322° (NW) 11:23:52 435.675
ESTCUBE 1 27 Feb 11:28:40 11:32:52 38° 97° (E) 11:37:02 437.505/2401.250
EO-79 27 Feb 11:29:48 11:33:57 55° 259° (W) 11:38:10 145.935-145.965
Gurwin Techsat 1B 27 Feb 11:33:00 11:36:03 16° 53° (NE) 11:39:06 435.225
SPROUT 27 Feb 11:35:51 11:38:08 14° 88° (E) 11:40:25 437.525
BEESAT 3 27 Feb 11:38:37 11:40:14 12° 18° (NNE) 11:41:50 437.485
VELOX 1 27 Feb 11:44:29 11:47:47 20° 92° (E) 11:51:04 145.980
NANOSAT C BR1 27 Feb 11:45:31 11:49:32 41° 262° (W) 11:53:35 145.865
POLYITAN 1 27 Feb 11:48:24 11:52:20 36° 263° (W) 11:56:20 437.675
LO-87 27 Feb 11:49:02 11:52:37 61° 286° (WNW) 11:56:10 145.935 - 145.965
DELFI C3 27 Feb 11:49:50 11:51:34 13° 302° (WNW) 11:53:18 145.870
QB50P2 27 Feb 11:51:39 11:55:28 32° 264° (W) 11:59:20 145.880/145.840
AO-85 27 Feb 11:52:49 11:56:42 59° 46° (NE) 12:00:35 145.980
AIST 2D 27 Feb 11:56:30 11:58:47 16° 269° (W) 12:01:06 435.315
BUGSAT 1 27 Feb 12:03:50 12:07:54 77° 256° (WSW) 12:12:05 437.445
Oscar 19 27 Feb 12:06:30 12:11:18 41° 66° (ENE) 12:16:06 437.125/150
50 SAT 27 Feb 12:08:15 12:10:55 20° 94° (E) 12:13:33 437.505
ISS 27 Feb 12:11:31 12:14:50 89° 204° (SSW) 12:18:08 437.550
FO-29 27 Feb 12:20:50 12:25:08 16° 280° (W) 12:29:37 435.910
BEESAT 2 27 Feb 12:21:54 12:23:48 13° 19° (NNE) 12:25:43 435.950
Tancredo 1 27 Feb 12:31:23 12:34:37 69° 203° (SSW) 12:37:50 437.200
AO-7 27 Feb 12:44:59 12:51:28 26° 45° (NE) 12:57:57 .
ITAMSAT 1 27 Feb 12:47:59 12:50:44 15° 52° (NE) 12:53:29 435.822/435.867
DUCHIFAT 1 27 Feb 12:55:53 12:56:42 10° 274° (W) 12:57:31 145.980
YUBILEINY 27 Feb 12:58:34 13:05:11 23° 305° (NW) 13:11:49 435.215
DX 1 27 Feb 13:03:46 13:08:03 53° 101° (E) 13:12:19 434.975-435.025
ESTCUBE 1 27 Feb 13:05:43 13:09:33 28° 296° (WNW) 13:13:22 437.505/2401.250
Gurwin Techsat 1B 27 Feb 13:09:53 13:15:12 79° 72° (ENE) 13:20:33 435.225
SPROUT 27 Feb 13:10:14 13:14:33 72° 287° (WNW) 13:18:51 437.525
UKube-1 27 Feb 13:11:05 13:15:16 46° 100° (E) 13:19:26 .
BEESAT 3 27 Feb 13:15:16 13:18:59 34° 40° (NE) 13:22:40 437.485
VELOX 1 27 Feb 13:20:14 13:24:31 51° 290° (WNW) 13:28:49 145.980
AO-85 27 Feb 13:34:01 13:36:43 18° 245° (WSW) 13:39:24 145.980
50 SAT 27 Feb 13:41:00 13:44:07 31° 292° (WNW) 13:47:13 437.505
Oscar 19 27 Feb 13:46:08 13:50:42 32° 265° (W) 13:55:19 437.125/150
ISS 27 Feb 13:48:19 13:50:59 23° 217° (SW) 13:53:39 437.550
BEESAT 2 27 Feb 13:58:49 14:02:39 39° 42° (NE) 14:06:28 435.950
Tancredo 1 27 Feb 14:08:24 14:10:26 16° 221° (SW) 14:12:28 437.200
ITUPSAT 1 27 Feb 14:11:15 14:14:29 18° 90° (E) 14:17:40 437.325
BEESAT 27 Feb 14:15:59 14:19:29 20° 91° (E) 14:22:57 436.000
ITAMSAT 1 27 Feb 14:24:09 14:29:21 74° 72° (ENE) 14:34:36 435.822/435.867
AO-7 27 Feb 14:34:48 14:43:11 82° 67° (ENE) 14:51:34 .
PCSat 27 Feb 14:39:44 14:41:58 13° 102° (ESE) 14:44:14 145.827
DX 1 27 Feb 14:40:41 14:43:54 21° 299° (WNW) 14:47:08 434.975-435.025
UKube-1 27 Feb 14:47:40 14:51:03 23° 298° (WNW) 14:54:26 .
SPROUT 27 Feb 14:48:37 14:49:42 11° 306° (NW) 14:50:46 437.525
Gurwin Techsat 1B 27 Feb 14:52:20 14:55:47 17° 272° (W) 14:59:15 435.225
BEESAT 3 27 Feb 14:52:54 14:56:37 36° 240° (WSW) 15:00:18 437.485
RS-15 27 Feb 14:57:57 15:02:34 13° 90° (E) 15:07:14 29.354- 29.394
BEESAT 2 27 Feb 15:36:45 15:40:23 31° 241° (WSW) 15:43:58 435.950
ITUPSAT 1 27 Feb 15:48:00 15:52:48 68° 288° (WNW) 15:57:33 437.325
MOZHAYETS 4 27 Feb 15:51:28 15:56:03 60° 101° (E) 16:00:34
BEESAT 27 Feb 15:52:56 15:57:40 60° 289° (WNW) 16:02:21 436.000
CUTE-I 27 Feb 15:52:59 15:55:56 15° 52° (NE) 15:58:53 437.470
KKS-1 27 Feb 16:04:34 16:08:07 23° 93° (E) 16:11:40 437.445
ITAMSAT 1 27 Feb 16:05:51 16:09:23 18° 271° (W) 16:12:57 435.822/435.867
XW-2C 27 Feb 16:07:50 16:09:13 12° 58° (ENE) 16:10:35 145.795 - 145.815
NUDT-PHONESAT 27 Feb 16:11:37 16:11:59 10° 57° (ENE) 16:12:23 437.300
PCSat 27 Feb 16:19:02 16:24:25 72° 121° (ESE) 16:29:51 145.827
LilacSat-2 27 Feb 16:25:57 16:28:37 18° 62° (ENE) 16:31:17 437.200
AO-7 27 Feb 16:30:05 16:36:51 27° 268° (W) 16:43:40 .
HO-68 27 Feb 16:30:07 16:33:58 15° 42° (NE) 16:37:49 435.675
STARS 27 Feb 16:31:38 16:34:56 20° 92° (E) 16:38:14 437.465
DOVE 4 27 Feb 16:39:26 16:42:56 27° 64° (ENE) 16:46:32 437.250
CUBESAT XI-V 27 Feb 16:57:40 17:02:08 48° 99° (E) 17:06:35 437.345
RS-15 27 Feb 17:00:26 17:11:51 54° 114° (ESE) 17:23:37 29.354- 29.394
NO-84 27 Feb 17:05:07 17:08:16 49° 143° (SE) 17:11:45 435.350 FM
KAITUO 1B 27 Feb 17:10:02 17:13:35 38° 69° (ENE) 17:17:09 145.475/437.950
XW-2F 27 Feb 17:18:54 17:22:40 55° 72° (ENE) 17:26:28 145.980 - 146.000
XW-2D 27 Feb 17:25:06 17:28:55 69° 75° (ENE) 17:32:47 145.860 - 145.880
ITUPSAT 1 27 Feb 17:27:57 17:29:45 12° 308° (NW) 17:31:33 437.325
MOZHAYETS 4 27 Feb 17:29:26 17:32:48 20° 300° (WNW) 17:36:10
CUTE-I 27 Feb 17:29:48 17:35:07 75° 72° (ENE) 17:40:30 437.470
XW-2B 27 Feb 17:30:12 17:34:02 76° 76° (ENE) 17:37:56 145.730 - 145.750
BEESAT 27 Feb 17:33:22 17:34:30 11° 309° (NW) 17:35:37 436.000
XW-2C 27 Feb 17:38:57 17:42:49 85° 256° (WSW) 17:46:43 145.795 - 145.815
KKS-1 27 Feb 17:40:36 17:44:54 46° 291° (WNW) 17:49:11 437.445
NUDT-PHONESAT 27 Feb 17:41:29 17:45:16 84° 76° (ENE) 17:49:05 437.300
M-CUBED/EXP-1 PRIME 27 Feb 17:41:59 17:45:30 35° 104° (ESE) 17:49:15 437.505
CUTE 1.7 + AOD 2 27 Feb 17:46:51 17:49:48 18° 61° (ENE) 17:52:45 437.475
LilacSat-2 27 Feb 17:58:47 18:02:34 50° 260° (W) 18:06:22 437.200
PCSat 27 Feb 18:03:38 18:08:19 29° 323° (NW) 18:13:03 145.827
STARS 27 Feb 18:07:15 18:11:35 52° 290° (WNW) 18:15:53 437.465
HO-68 27 Feb 18:13:18 18:20:14 54° 64° (ENE) 18:27:10 435.675
XW-2A 27 Feb 18:13:25 18:16:36 37° 70° (ENE) 18:19:50 145.665 - 145.685
DOVE 4 27 Feb 18:16:47 18:20:34 34° 264° (W) 18:24:28 437.250
AAUSAT CUBESAT 2 27 Feb 18:21:12 18:23:31 15° 59° (ENE) 18:25:49 437.432
STRAND 1 27 Feb 18:26:52 18:29:28 14° 86° (E) 18:32:02 437.568
CUBEBUG 2 27 Feb 18:31:35 18:35:18 26° 63° (ENE) 18:39:08 437.445
AO-73 27 Feb 18:31:59 18:33:18 11° 54° (NE) 18:34:39 145.935
CUBESAT XI-V 27 Feb 18:35:35 18:39:16 24° 298° (WNW) 18:42:55 437.345
SEEDS 27 Feb 18:37:57 18:41:50 36° 68° (ENE) 18:45:43 437.485
NO-84 27 Feb 18:42:40 18:46:00 45° 345° (NNW) 18:49:39 435.350 FM
KAITUO 1B 27 Feb 18:44:51 18:47:45 21° 267° (W) 18:50:41 145.475/437.950
XW-2F 27 Feb 18:54:57 18:57:10 15° 271° (W) 18:59:24 145.980 - 146.000
XW-2D 27 Feb 19:02:00 19:03:35 12° 272° (W) 19:05:11 145.860 - 145.880
UWE-3 27 Feb 19:02:58 19:07:00 32° 66° (ENE) 19:11:07 435.000/436.395/437.385
YUBILEINY 27 Feb 19:07:02 19:12:38 18° 49° (NE) 19:18:12 435.215
XW-2B 27 Feb 19:07:39 19:08:45 11° 273° (W) 19:09:53 145.730 - 145.750
CUTE-I 27 Feb 19:12:07 19:15:46 18° 271° (W) 19:19:27 437.470
RS-15 27 Feb 19:12:13 19:24:18 65° 321° (NW) 19:36:40 29.354- 29.394
M-CUBED/EXP-1 PRIME 27 Feb 19:16:44 19:19:53 26° 300° (WNW) 19:23:14 437.505
ZACube-1 27 Feb 19:18:06 19:21:58 29° 65° (ENE) 19:25:55 437.345
CUTE 1.7 + AOD 2 27 Feb 19:21:02 19:25:16 58° 260° (W) 19:29:30 437.475
DELFI C3 27 Feb 19:31:47 19:32:28 10° 57° (ENE) 19:33:09 145.870
XW-2A 27 Feb 19:47:16 19:49:33 17° 268° (W) 19:51:51 145.665 - 145.685
PCSat 27 Feb 19:50:57 19:53:35 13° 349° (NNW) 19:56:14 145.827
AAUSAT CUBESAT 2 27 Feb 19:54:19 19:58:28 73° 258° (WSW) 20:02:38 437.432
HO-68 27 Feb 20:01:40 20:08:12 37° 264° (W) 20:14:47 435.675
AO-73 27 Feb 20:04:12 20:08:40 68° 73° (ENE) 20:13:15 145.935
STRAND 1 27 Feb 20:04:12 20:09:24 87° 106° (ESE) 20:14:34 437.568
CUBEBUG 2 27 Feb 20:07:22 20:11:41 45° 262° (W) 20:16:11 437.445
Oscar 11 27 Feb 20:07:40 20:11:59 65° 72° (ENE) 20:16:19 .
SEEDS 27 Feb 20:14:04 20:17:37 26° 266° (W) 20:21:10 437.485
NO-84 27 Feb 20:20:48 20:24:14 36° 6° (N) 20:27:57 435.350 FM
UWE-3 27 Feb 20:39:16 20:43:24 34° 265° (W) 20:47:39 435.000/436.395/437.385
ZACube-1 27 Feb 20:53:54 20:58:07 39° 263° (W) 21:02:26 437.345
LO-87 27 Feb 20:58:49 20:59:39 11° 58° (ENE) 21:00:29 145.935 - 145.965
DELFI C3 27 Feb 21:02:37 21:06:35 81° 77° (ENE) 21:10:33 145.870
YUBILEINY 27 Feb 21:02:49 21:11:32 65° 75° (ENE) 21:20:09 435.215
TIGRISAT 27 Feb 21:10:53 21:12:33 12° 85° (E) 21:14:12 435.000
UNISAT 6 27 Feb 21:11:07 21:13:11 13° 86° (E) 21:15:13 437.425
RS-15 27 Feb 21:28:12 21:39:37 40° 352° (N) 21:51:03 29.354- 29.394
PCSat 27 Feb 21:36:28 21:39:24 14° 15° (NNE) 21:42:20 145.827
FO-29 27 Feb 21:37:56 21:43:07 20° 82° (E) 21:48:01 435.910
AO-73 27 Feb 21:42:35 21:45:24 16° 272° (W) 21:48:15 145.935
PRISM 27 Feb 21:44:18 21:48:17 48° 100° (E) 21:52:14 437.425
STRAND 1 27 Feb 21:44:36 21:47:55 18° 305° (NW) 21:51:14 437.568
Oscar 11 27 Feb 21:45:55 21:48:34 16° 271° (W) 21:51:14 .
NO-84 27 Feb 21:58:27 22:02:19 74° 27° (NNE) 22:06:30 435.350 FM
SO-50 27 Feb 22:08:03 22:12:39 59° 124° (SE) 22:17:11 436.795
LO-87 27 Feb 22:29:01 22:32:33 79° 257° (WSW) 22:36:07 145.935 - 145.965
DX 1 27 Feb 22:30:18 22:31:59 12° 55° (NE) 22:33:42 434.975-435.025
ESTCUBE 1 27 Feb 22:32:01 22:36:26 59° 71° (ENE) 22:40:53 437.505/2401.250
SPROUT 27 Feb 22:33:07 22:36:11 20° 61° (ENE) 22:39:16 437.525
UKube-1 27 Feb 22:37:35 22:38:25 10° 53° (NE) 22:39:15 .
DELFI C3 27 Feb 22:40:59 22:41:56 11° 273° (W) 22:42:52 145.870
TIGRISAT 27 Feb 22:45:13 22:49:59 84° 106° (ESE) 22:54:38 435.000
O/OREOS (USA 219) 27 Feb 22:45:23 22:49:52 77° 114° (ESE) 22:54:24 437.305
VELOX 1 27 Feb 22:45:36 22:49:27 31° 65° (ENE) 22:53:18 145.980
UNISAT 6 27 Feb 22:45:49 22:50:35 90° 234° (SW) 22:55:15 437.425
50 SAT 27 Feb 22:46:45 22:49:09 18° 63° (ENE) 22:51:33 437.505
DUCHIFAT 1 27 Feb 22:57:57 22:59:15 11° 87° (E) 23:00:32 145.980
YUBILEINY 27 Feb 23:00:17 23:07:47 34° 278° (W) 23:15:15 435.215
EO-79 27 Feb 23:10:46 23:13:45 18° 91° (E) 23:16:42 145.935-145.965
AIST 2D 27 Feb 23:16:07 23:19:17 29° 96° (E) 23:22:25 435.315
PCSat 27 Feb 23:19:31 23:24:29 34° 40° (NE) 23:29:25 145.827
PRISM 27 Feb 23:20:16 23:23:17 20° 298° (WNW) 23:26:17 437.425
FO-29 27 Feb 23:21:38 23:29:24 83° 105° (ESE) 23:36:23 435.910
NANOSAT C BR1 27 Feb 23:25:35 23:29:01 23° 93° (E) 23:32:26 145.865
POLYITAN 1 27 Feb 23:28:44 23:32:24 27° 94° (E) 23:36:03 437.675
QB50P2 27 Feb 23:31:44 23:35:33 30° 95° (E) 23:39:20 145.880/145.840
NO-84 27 Feb 23:36:20 23:39:50 28° 223° (SW) 23:43:30 435.350 FM
BUGSAT 1 27 Feb 23:42:54 23:44:37 12° 87° (E) 23:46:21 437.445
RS-15 27 Feb 23:43:43 23:55:41 49° 26° (NNE) 00:07:20 29.354- 29.394
SO-50 27 Feb 23:49:18 23:53:25 30° 325° (NW) 23:57:29 436.795
DX 1 28 Feb 00:03:09 00:07:28 81° 75° (ENE) 00:11:50 434.975-435.025
SPROUT 28 Feb 00:07:34 00:11:45 55° 260° (W) 00:15:59 437.525
UKube-1 28 Feb 00:09:23 00:13:39 69° 72° (ENE) 00:17:57 .
ESTCUBE 1 28 Feb 00:10:31 00:13:38 18° 270° (W) 00:16:45 437.505/2401.250
50 SAT 28 Feb 00:18:43 00:22:01 39° 261° (W) 00:25:20 437.505
VELOX 1 28 Feb 00:21:53 00:25:51 33° 263° (W) 00:29:51 145.980
TIGRISAT 28 Feb 00:23:12 00:26:01 16° 303° (WNW) 00:28:50 435.000
UNISAT 6 28 Feb 00:23:58 00:26:36 15° 304° (NW) 00:29:13 437.425
O/OREOS (USA 219) 28 Feb 00:26:38 00:29:50 19° 315° (NW) 00:33:04 437.305
DUCHIFAT 1 28 Feb 00:31:15 00:35:33 88° 287° (WNW) 00:39:49 145.980
EO-79 28 Feb 00:45:38 00:49:51 55° 289° (WNW) 00:54:02 145.935-145.965
AIST 2D 28 Feb 00:49:31 00:52:25 24° 294° (WNW) 00:55:18 435.315
NANOSAT C BR1 28 Feb 01:00:52 01:04:54 42° 292° (WNW) 01:08:56 145.865
PCSat 28 Feb 01:02:51 01:08:11 56° 241° (WSW) 01:13:28 145.827
POLYITAN 1 28 Feb 01:04:18 01:08:16 37° 293° (WNW) 01:12:13 437.675
FO-29 28 Feb 01:07:20 01:13:34 28° 307° (NW) 01:19:24 435.910
QB50P2 28 Feb 01:07:30 01:11:21 32° 294° (WNW) 01:15:10 145.880/145.840
